Regional Weather Roundup
Issued by NWS

Home | Current Version | Previous Version | Text Only | Print | Product List | Glossary Off
Versions: 1 2 3 4 5 6 7 8 9 10 11 12 13 14 15 16 17 18 19 20 21 22 23 24 25 26 27 28 29 30 31 32 33 34 35 36 37 38 39 40 41 42 43 44 45 46 47 48 49 50

000
ASUS43 KBIS 301402
RWRND

NORTH DAKOTA REGIONAL WEATHER ROUNDUP
NATIONAL WEATHER SERVICE BISMARCK ND
900 AM CDT THU JUL 30 2015

NOTE: "FAIR" INDICATES FEW OR NO CLOUDS BELOW 12,000 FEET WITH NO
SIGNIFICANT WEATHER AND/OR OBSTRUCTIONS TO VISIBILITY.


NDZ001>003-009>011-017-301500-
NORTHWEST NORTH DAKOTA

CITY           SKY/WX    TMP DP  RH WIND       PRES   REMARKS
WILLISTON      SUNNY     64  54  69 NE5       30.18R
MINOT          SUNNY     69  51  52 W15       30.11R
MINOT AFB      SUNNY     69  57  65 NW14      30.10R
$$

NDZ018>021-031>035-040>046-301500-
SOUTHWEST NORTH DAKOTA

CITY           SKY/WX    TMP DP  RH WIND       PRES   REMARKS
BISMARCK       SUNNY     65  50  58 W7        30.15S
DICKINSON      SUNNY     65  48  54 W10       30.17S
GARRISON         N/A     63  55  75 W6        30.14R
HETTINGER ARPT SUNNY     65  49  56 NW5       30.21S
$$

NDZ004>008-012>016-024-026-027-054-301500-
NORTHEAST NORTH DAKOTA

CITY           SKY/WX    TMP DP  RH WIND       PRES   REMARKS
GRAND FORKS    PTSUNNY   68  56  65 W10       30.00R
GRND FRKS AFB  PTSUNNY   68  56  66 NW9       30.01S
DEVILS LAKE    MOSUNNY   68  52  56 W14       30.04S
$$

NDZ022-023-025-028>030-036>039-047>053-301500-
SOUTHEAST NORTH DAKOTA

CITY           SKY/WX    TMP DP  RH WIND       PRES   REMARKS
FARGO          MOSUNNY   70  57  63 W12       30.04R
JAMESTOWN      SUNNY     68  56  65 NW9       30.11R
$$



USA.gov is the U.S. government's official web portal to all federal, state and local government web resources and services.